When you browse on this site, cookies collect data to enhance your experience and personalize the content and advertising you see.
Visit our Privacy Policy to learn more. By continuing to use the site, you agree to this use of cookies and data.
  • In Hungary
  • List of Countries
  • For 7 days
  • Water Temperature
  • Weather Map
  • News
  • Weather Widgets
  • user-avatar
    Login

    Hourly Weather Zelenyi Hai

    Today, 24 August, Saturday

    Time Temperature Precipitation Wind Pressure Humidity
    00:00 +22°C° 0 mm 4 mps 758 mmHg 84%
    01:00 +21°C° 0 mm 3 mps 758 mmHg 87%
    02:00 +21°C° 0 mm 3 mps 758 mmHg 88%
    03:00 +21°C° 0 mm 3 mps 758 mmHg 90%
    04:00 +20°C° 0 mm 4 mps 758 mmHg 92%
    05:00 +20°C° 0 mm 4 mps 758 mmHg 94%
    06:00 +21°C° 0 mm 4 mps 759 mmHg 87%
    07:00 +23°C° 0 mm 5 mps 759 mmHg 80%
    08:00 +25°C° 0 mm 5 mps 759 mmHg 70%
    09:00 +27°C° 0 mm 5 mps 759 mmHg 64%
    10:00 +28°C° 0 mm 5 mps 758 mmHg 57%
    11:00 +30°C° 0 mm 5 mps 758 mmHg 51%
    12:00 +32°C° 0 mm 5 mps 758 mmHg 48%
    13:00 +33°C° 0 mm 5 mps 758 mmHg 45%
    14:00 +33°C° 0 mm 5 mps 758 mmHg 42%
    15:00 +33°C° 0 mm 5 mps 758 mmHg 44%
    16:00 +32°C° 0 mm 5 mps 758 mmHg 46%
    17:00 +30°C° 0 mm 4 mps 758 mmHg 48%
    18:00 +29°C° 0 mm 4 mps 758 mmHg 54%
    19:00 +27°C° 0 mm 4 mps 758 mmHg 60%
    20:00 +25°C° 0 mm 4 mps 758 mmHg 66%
    21:00 +23°C° 0 mm 4 mps 758 mmHg 68%
    22:00 +22°C° 0 mm 4 mps 758 mmHg 70%
    23:00 +22°C° 0 mm 4 mps 758 mmHg 73%

    Tomorrow, 25 August, Sunday

    Time Temperature Precipitation Wind Pressure Humidity
    00:00 +21°C° 0 mm 4 mps 758 mmHg 74%
    01:00 +20°C° 0 mm 4 mps 758 mmHg 76%
    02:00 +20°C° 0 mm 4 mps 758 mmHg 77%
    03:00 +19°C° 0 mm 4 mps 758 mmHg 77%
    04:00 +19°C° 0 mm 4 mps 758 mmHg 78%
    05:00 +18°C° 0 mm 3 mps 759 mmHg 78%
    06:00 +20°C° 0 mm 4 mps 759 mmHg 70%
    07:00 +21°C° 0 mm 4 mps 759 mmHg 63%
    08:00 +23°C° 0 mm 5 mps 759 mmHg 55%
    09:00 +26°C° 0 mm 5 mps 759 mmHg 48%
    10:00 +27°C° 0 mm 5 mps 759 mmHg 42%
    11:00 +29°C° 0 mm 5 mps 759 mmHg 36%
    12:00 +29°C° 0 mm 5 mps 759 mmHg 34%
    13:00 +30°C° 0 mm 5 mps 759 mmHg 32%
    14:00 +30°C° 0 mm 5 mps 759 mmHg 30%
    15:00 +29°C° 0 mm 5 mps 759 mmHg 33%
    16:00 +29°C° 0 mm 5 mps 758 mmHg 35%
    17:00 +28°C° 0 mm 4 mps 758 mmHg 38%
    18:00 +26°C° 0 mm 4 mps 759 mmHg 44%
    19:00 +23°C° 0 mm 4 mps 759 mmHg 50%
    20:00 +21°C° 0 mm 4 mps 760 mmHg 57%
    21:00 +21°C° 0 mm 4 mps 760 mmHg 61%
    22:00 +20°C° 0 mm 4 mps 760 mmHg 66%
    23:00 +19°C° 0 mm 4 mps 760 mmHg 71%

    Day after tomorrow, 26 August, Monday

    Time Temperature Precipitation Wind Pressure Humidity
    00:00 +19°C° 0 mm 4 mps 760 mmHg 73%
    01:00 +19°C° 0 mm 4 mps 760 mmHg 75%
    02:00 +18°C° 0 mm 4 mps 760 mmHg 77%
    03:00 +18°C° 0 mm 4 mps 760 mmHg 75%
    04:00 +17°C° 0 mm 3 mps 760 mmHg 74%
    05:00 +16°C° 0 mm 3 mps 760 mmHg 72%
    06:00 +18°C° 0 mm 4 mps 761 mmHg 66%
    07:00 +20°C° 0 mm 4 mps 761 mmHg 61%
    08:00 +22°C° 0 mm 5 mps 761 mmHg 56%
    09:00 +23°C° 0 mm 5 mps 761 mmHg 51%
    10:00 +26°C° 0 mm 5 mps 761 mmHg 45%
    11:00 +27°C° 0 mm 5 mps 761 mmHg 40%
    12:00 +28°C° 0 mm 5 mps 760 mmHg 37%
    13:00 +28°C° 0 mm 4 mps 760 mmHg 35%
    14:00 +29°C° 0 mm 4 mps 760 mmHg 32%
    15:00 +28°C° 0 mm 4 mps 760 mmHg 34%
    16:00 +27°C° 0 mm 4 mps 759 mmHg 36%
    17:00 +27°C° 0 mm 4 mps 759 mmHg 38%
    18:00 +25°C° 0 mm 3 mps 759 mmHg 43%
    19:00 +22°C° 0 mm 3 mps 759 mmHg 48%
    20:00 +20°C° 0 mm 3 mps 760 mmHg 53%
    21:00 +19°C° 0 mm 3 mps 760 mmHg 55%
    22:00 +18°C° 0 mm 3 mps 760 mmHg 57%
    23:00 +17°C° 0 mm 3 mps 759 mmHg 58%

    27 August, Tuesday

    Time Temperature Precipitation Wind Pressure Humidity
    00:00 +17°C° 0 mm 3 mps 759 mmHg 60%
    01:00 +16°C° 0 mm 3 mps 759 mmHg 62%
    02:00 +16°C° 0 mm 2 mps 759 mmHg 63%
    03:00 +16°C° 0 mm 2 mps 759 mmHg 65%
    04:00 +15°C° 0 mm 2 mps 759 mmHg 67%
    05:00 +14°C° 0 mm 3 mps 759 mmHg 69%
    06:00 +17°C° 0 mm 3 mps 759 mmHg 62%
    07:00 +19°C° 0 mm 3 mps 758 mmHg 55%
    08:00 +22°C° 0 mm 3 mps 758 mmHg 48%
    09:00 +24°C° 0 mm 3 mps 758 mmHg 43%
    10:00 +25°C° 0 mm 3 mps 758 mmHg 38%
    11:00 +27°C° 0 mm 3 mps 758 mmHg 33%
    12:00 +28°C° 0 mm 3 mps 757 mmHg 31%
    13:00 +28°C° 0 mm 3 mps 757 mmHg 29%
    14:00 +29°C° 0 mm 3 mps 757 mmHg 27%
    15:00 +28°C° 0 mm 3 mps 756 mmHg 29%
    16:00 +28°C° 0 mm 3 mps 756 mmHg 32%
    17:00 +27°C° 0 mm 3 mps 756 mmHg 34%
    18:00 +25°C° 0 mm 2 mps 756 mmHg 40%
    19:00 +23°C° 0 mm 2 mps 756 mmHg 46%
    20:00 +20°C° 0 mm 2 mps 756 mmHg 51%
    21:00 +19°C° 0 mm 2 mps 756 mmHg 56%
    22:00 +18°C° 0 mm 2 mps 756 mmHg 61%
    23:00 +18°C° 0 mm 2 mps 756 mmHg 67%

    28 August, Wednesday

    Time Temperature Precipitation Wind Pressure Humidity
    00:00 +18°C° 0 mm 2 mps 756 mmHg 71%
    01:00 +17°C° 0 mm 2 mps 756 mmHg 75%
    02:00 +17°C° 0 mm 3 mps 756 mmHg 78%
    03:00 +17°C° 0 mm 3 mps 756 mmHg 82%
    04:00 +16°C° 0 mm 3 mps 756 mmHg 85%
    05:00 +16°C° 0 mm 3 mps 756 mmHg 89%
    06:00 +17°C° 0 mm 3 mps 756 mmHg 79%
    07:00 +19°C° 0 mm 4 mps 757 mmHg 70%
    08:00 +21°C° 0 mm 4 mps 757 mmHg 61%
    09:00 +22°C° 0 mm 4 mps 757 mmHg 54%
    10:00 +23°C° 0 mm 5 mps 757 mmHg 47%
    11:00 +25°C° 0 mm 5 mps 757 mmHg 40%
    12:00 +26°C° 0 mm 5 mps 757 mmHg 39%
    13:00 +26°C° 0 mm 5 mps 757 mmHg 38%
    14:00 +26°C° 0 mm 5 mps 756 mmHg 37%
    15:00 +25°C° 0 mm 5 mps 756 mmHg 37%
    16:00 +23°C° 0 mm 5 mps 757 mmHg 37%
    17:00 +22°C° 0 mm 5 mps 757 mmHg 36%
    18:00 +20°C° 0 mm 5 mps 757 mmHg 39%
    19:00 +18°C° 0 mm 4 mps 757 mmHg 41%
    20:00 +15°C° 0 mm 4 mps 757 mmHg 43%
    21:00 +14°C° 0 mm 4 mps 758 mmHg 46%
    22:00 +13°C° 0 mm 3 mps 758 mmHg 48%
    23:00 +12°C° 0 mm 3 mps 758 mmHg 51%

    29 August, Thursday

    Time Temperature Precipitation Wind Pressure Humidity
    00:00 +11°C° 0 mm 3 mps 758 mmHg 53%
    01:00 +11°C° 0 mm 3 mps 759 mmHg 55%
    02:00 +10°C° 0 mm 3 mps 759 mmHg 58%
    03:00 +9°C° 0 mm 3 mps 759 mmHg 60%
    04:00 +9°C° 0 mm 3 mps 759 mmHg 63%
    05:00 +8°C° 0 mm 3 mps 759 mmHg 66%
    06:00 +10°C° 0 mm 4 mps 759 mmHg 61%
    07:00 +12°C° 0 mm 4 mps 760 mmHg 55%
    08:00 +13°C° 0 mm 5 mps 760 mmHg 50%
    09:00 +15°C° 0 mm 5 mps 760 mmHg 46%
    10:00 +16°C° 0 mm 5 mps 760 mmHg 41%
    11:00 +17°C° 0 mm 5 mps 760 mmHg 37%
    12:00 +19°C° 0 mm 5 mps 759 mmHg 35%
    13:00 +20°C° 0 mm 5 mps 759 mmHg 34%
    14:00 +20°C° 0 mm 4 mps 759 mmHg 32%
    15:00 +20°C° 0 mm 4 mps 759 mmHg 34%
    16:00 +20°C° 0 mm 4 mps 759 mmHg 35%
    17:00 +19°C° 0 mm 4 mps 759 mmHg 37%
    18:00 +17°C° 0 mm 4 mps 759 mmHg 42%
    19:00 +14°C° 0 mm 4 mps 759 mmHg 48%
    20:00 +13°C° 0 mm 3 mps 759 mmHg 53%
    21:00 +12°C° 0 mm 3 mps 759 mmHg 57%
    22:00 +11°C° 0 mm 3 mps 759 mmHg 61%
    23:00 +10°C° 0 mm 3 mps 760 mmHg 65%
    Show more